RYR79RN LZIB-EGPH

Flight info

Callsign RYR79RN
Flight time 2h 22m
Altitude 38000
Route TOVKA DCT DITIS DCT VEXIL DCT KUMER DCT LONAM DCT AGPED
Aircraft B38M/M-SDE1FGHILORVWXY/HB1

Departure

Time 2026-05-05 19:15
Airport M. R. Štefánik Airport (LZIB)

Arrival

Time 2026-05-05 21:37
Airport Edinburgh Airport (EGPH)
Time Latitude Longitude Altitude Speed Heading
2026-05-05 18:49 48.16763 17.19826 444 ft 0 kts 359°
2026-05-05 19:07 48.16761 17.19826 444 ft 2 kts 359°
2026-05-05 19:07 48.16735 17.19828 431 ft 4 kts 355°
2026-05-05 19:07 48.16709 17.19832 437 ft 4 kts 358°
2026-05-05 19:08 48.16684 17.19827 437 ft 4 kts 33°
2026-05-05 19:08 48.16682 17.19831 431 ft 4 kts 72°
2026-05-05 19:08 48.16679 17.19869 443 ft 4 kts 99°
2026-05-05 19:08 48.16677 17.19904 446 ft 0 kts 89°
2026-05-05 19:11 48.16678 17.19905 446 ft 0 kts 83°
2026-05-05 19:11 48.16691 17.19919 437 ft 8 kts 32°
2026-05-05 19:11 48.16783 17.20011 429 ft 22 kts 41°
2026-05-05 19:12 48.16905 17.20184 438 ft 24 kts 44°
2026-05-05 19:12 48.17032 17.20364 430 ft 27 kts 43°
2026-05-05 19:12 48.17163 17.20550 429 ft 15 kts 44°
2026-05-05 19:12 48.17248 17.20520 427 ft 15 kts 316°
2026-05-05 19:13 48.17325 17.20402 431 ft 17 kts 313°
2026-05-05 19:13 48.17427 17.20299 420 ft 19 kts 349°
2026-05-05 19:13 48.17524 17.20370 426 ft 14 kts 58°
2026-05-05 19:13 48.17541 17.20419 421 ft 4 kts 76°
2026-05-05 19:14 48.17538 17.20441 430 ft 2 kts 111°
2026-05-05 19:14 48.17524 17.20466 421 ft 6 kts 133°
2026-05-05 19:14 48.17345 17.20743 431 ft 74 kts 134°
2026-05-05 19:14 48.16824 17.21546 428 ft 138 kts 136°
2026-05-05 19:15 48.16062 17.22725 663 ft 168 kts 136°
2026-05-05 19:15 48.15266 17.23993 1460 ft 168 kts 139°
2026-05-05 19:15 48.14470 17.25249 2338 ft 171 kts 142°
2026-05-05 19:15 48.13578 17.26615 2733 ft 196 kts 142°
2026-05-05 19:16 48.12618 17.28108 3547 ft 197 kts 142°
2026-05-05 19:16 48.11649 17.29622 4303 ft 207 kts 140°
2026-05-05 19:16 48.10965 17.31576 5145 ft 222 kts 109°
2026-05-05 19:16 48.10992 17.33973 5883 ft 245 kts 81°
2026-05-05 19:17 48.11879 17.36306 6341 ft 276 kts 47°
2026-05-05 19:17 48.13547 17.37715 7001 ft 284 kts 13°
2026-05-05 19:17 48.15503 17.37816 7832 ft 282 kts 345°
2026-05-05 19:17 48.17299 17.36741 8706 ft 277 kts 326°
2026-05-05 19:18 48.18979 17.35291 9509 ft 281 kts 326°
2026-05-05 19:18 48.20678 17.33799 10256 ft 286 kts 326°
2026-05-05 19:18 48.22449 17.32220 10677 ft 305 kts 325°
2026-05-05 19:18 48.24075 17.30096 11058 ft 315 kts 302°
2026-05-05 19:19 48.24997 17.27096 11547 ft 320 kts 278°
2026-05-05 19:19 48.25129 17.23791 12098 ft 325 kts 265°
2026-05-05 19:19 48.25065 17.20354 12785 ft 331 kts 265°
2026-05-05 19:19 48.24989 17.16889 13558 ft 334 kts 264°
2026-05-05 19:20 48.24899 17.13377 14242 ft 338 kts 265°
2026-05-05 19:20 48.24834 17.11036 14726 ft 339 kts 264°
2026-05-05 19:20 48.24695 17.06317 15642 ft 343 kts 264°
2026-05-05 19:20 48.24650 17.02714 16316 ft 349 kts 273°
2026-05-05 19:21 48.25279 16.99169 17003 ft 356 kts 289°
2026-05-05 19:21 48.25898 16.96878 17428 ft 358 kts 288°
2026-05-05 19:21 48.26844 16.93387 18032 ft 363 kts 291°
2026-05-05 19:21 48.28034 16.90004 18587 ft 367 kts 296°
2026-05-05 19:22 48.29267 16.86628 19140 ft 370 kts 296°
2026-05-05 19:22 48.30499 16.83214 19665 ft 372 kts 295°
2026-05-05 19:22 48.31731 16.79773 20203 ft 375 kts 295°
2026-05-05 19:22 48.32949 16.76360 20732 ft 377 kts 295°
2026-05-05 19:23 48.34197 16.72854 21256 ft 380 kts 295°
2026-05-05 19:23 48.35447 16.69338 21788 ft 382 kts 295°
2026-05-05 19:23 48.36703 16.65799 22313 ft 385 kts 295°
2026-05-05 19:23 48.37970 16.62224 22820 ft 388 kts 295°
2026-05-05 19:24 48.39244 16.58627 23340 ft 391 kts 295°
2026-05-05 19:24 48.40525 16.55006 23752 ft 394 kts 295°
2026-05-05 19:24 48.41813 16.51357 24193 ft 396 kts 295°
2026-05-05 19:24 48.43091 16.47731 24633 ft 398 kts 295°
2026-05-05 19:25 48.44396 16.44026 25028 ft 401 kts 295°
2026-05-05 19:25 48.45707 16.40295 25450 ft 403 kts 295°
2026-05-05 19:25 48.47023 16.36548 25862 ft 406 kts 295°
2026-05-05 19:25 48.48349 16.32767 26279 ft 408 kts 295°
2026-05-05 19:26 48.49678 16.28969 26678 ft 411 kts 295°
2026-05-05 19:26 48.51014 16.25148 27075 ft 413 kts 295°
2026-05-05 19:26 48.52356 16.21302 27463 ft 416 kts 295°
2026-05-05 19:26 48.53704 16.17434 27850 ft 418 kts 295°
2026-05-05 19:27 48.55061 16.13534 28229 ft 420 kts 295°
2026-05-05 19:27 48.56406 16.09662 28598 ft 423 kts 295°
2026-05-05 19:27 48.57775 16.05717 28962 ft 425 kts 295°
2026-05-05 19:27 48.59151 16.01743 29311 ft 428 kts 295°
2026-05-05 19:28 48.60530 15.97756 29663 ft 430 kts 295°
2026-05-05 19:28 48.61922 15.93727 29976 ft 432 kts 295°
2026-05-05 19:28 48.63313 15.89691 30280 ft 434 kts 295°
2026-05-05 19:28 48.64708 15.85638 30589 ft 435 kts 295°
2026-05-05 19:29 48.66094 15.81608 30879 ft 437 kts 295°
2026-05-05 19:29 48.67500 15.77510 31174 ft 439 kts 295°
2026-05-05 19:29 48.68909 15.73398 31461 ft 440 kts 295°
2026-05-05 19:29 48.70320 15.69273 31746 ft 442 kts 295°
2026-05-05 19:30 48.71741 15.65110 32035 ft 444 kts 295°
2026-05-05 19:30 48.73144 15.60999 32317 ft 446 kts 295°
2026-05-05 19:30 48.74566 15.56821 32612 ft 447 kts 295°
2026-05-05 19:30 48.75990 15.52631 32992 ft 446 kts 295°
2026-05-05 19:31 48.77408 15.48452 33398 ft 444 kts 295°
2026-05-05 19:31 48.78820 15.44284 33784 ft 443 kts 295°
2026-05-05 19:31 48.80223 15.40134 34117 ft 441 kts 295°
2026-05-05 19:31 48.81622 15.35991 34449 ft 440 kts 295°
2026-05-05 19:32 48.83014 15.31863 34789 ft 439 kts 295°
2026-05-05 19:32 48.84401 15.27743 35121 ft 437 kts 294°
2026-05-05 19:32 48.85763 15.23695 35437 ft 436 kts 294°
2026-05-05 19:32 48.87140 15.19594 35751 ft 434 kts 294°
2026-05-05 19:33 48.88507 15.15518 36046 ft 433 kts 294°
2026-05-05 19:33 48.90029 15.11567 36319 ft 435 kts 306°
2026-05-05 19:33 48.92088 15.08184 36640 ft 435 kts 310°
2026-05-05 19:33 48.94158 15.04812 36831 ft 436 kts 310°
2026-05-05 19:34 48.96238 15.01456 37071 ft 436 kts 310°
2026-05-05 19:34 48.98323 14.98116 37321 ft 435 kts 310°
2026-05-05 19:34 49.00413 14.94780 37569 ft 434 kts 310°
2026-05-05 19:35 49.05387 14.86837 37749 ft 433 kts 310°
2026-05-05 19:35 49.07465 14.83511 37747 ft 431 kts 310°
2026-05-05 19:36 49.11612 14.76863 37749 ft 432 kts 310°
2026-05-05 19:36 49.15752 14.70208 37762 ft 432 kts 310°
2026-05-05 19:37 49.19878 14.63559 37761 ft 432 kts 309°
2026-05-05 19:37 49.24023 14.56862 37767 ft 432 kts 309°
2026-05-05 19:38 49.28137 14.50198 37763 ft 433 kts 309°
2026-05-05 19:38 49.32284 14.43463 37763 ft 433 kts 309°
2026-05-05 19:39 49.36399 14.36762 37758 ft 434 kts 309°
2026-05-05 19:39 49.40533 14.30013 37768 ft 434 kts 309°
2026-05-05 19:40 49.44670 14.23240 37759 ft 434 kts 309°
2026-05-05 19:40 49.48775 14.16504 37761 ft 434 kts 309°
2026-05-05 19:41 49.52910 14.09698 37760 ft 435 kts 309°
2026-05-05 19:41 49.57050 14.02868 37763 ft 435 kts 309°
2026-05-05 19:42 49.61160 13.96068 37765 ft 435 kts 309°
2026-05-05 19:42 49.65274 13.89243 37767 ft 436 kts 309°
2026-05-05 19:43 49.69406 13.82370 37778 ft 436 kts 308°
2026-05-05 19:43 49.73525 13.75500 37771 ft 436 kts 308°
2026-05-05 19:44 49.77639 13.68621 37771 ft 435 kts 308°
2026-05-05 19:44 49.81755 13.61721 37770 ft 436 kts 308°
2026-05-05 19:45 49.85856 13.54826 37775 ft 437 kts 308°
2026-05-05 19:45 49.89975 13.47882 37767 ft 438 kts 308°
2026-05-05 19:46 49.94110 13.40891 37773 ft 439 kts 308°
2026-05-05 19:46 49.98247 13.33882 37750 ft 440 kts 308°
2026-05-05 19:47 50.02357 13.26894 37771 ft 441 kts 308°
2026-05-05 19:47 50.06501 13.19830 37805 ft 442 kts 308°
2026-05-05 19:48 50.10660 13.12723 37816 ft 444 kts 308°
2026-05-05 19:48 50.14803 13.05622 37841 ft 445 kts 308°
2026-05-05 19:49 50.18980 12.98443 37827 ft 446 kts 308°
2026-05-05 19:49 50.23133 12.91286 37833 ft 448 kts 307°
2026-05-05 19:50 50.27315 12.84061 37830 ft 448 kts 307°
2026-05-05 19:50 50.31510 12.76796 37825 ft 449 kts 307°
2026-05-05 19:51 50.35679 12.69556 37804 ft 449 kts 307°
2026-05-05 19:51 50.39899 12.62288 37791 ft 451 kts 308°
2026-05-05 19:52 50.44193 12.55084 37785 ft 452 kts 308°
2026-05-05 19:52 50.48459 12.47891 37777 ft 452 kts 308°
2026-05-05 19:53 50.52745 12.40641 37776 ft 452 kts 308°
2026-05-05 19:53 50.57022 12.33387 37775 ft 452 kts 308°
2026-05-05 19:54 50.61297 12.26114 37769 ft 452 kts 308°
2026-05-05 19:54 50.65565 12.18833 37775 ft 452 kts 308°
2026-05-05 19:55 50.69806 12.11578 37768 ft 452 kts 308°
2026-05-05 19:55 50.74070 12.04262 37766 ft 452 kts 308°
2026-05-05 19:56 50.78322 11.96946 37772 ft 452 kts 308°
2026-05-05 19:56 50.82548 11.89651 37771 ft 452 kts 308°
2026-05-05 19:57 50.86778 11.82330 37779 ft 452 kts 307°
2026-05-05 19:57 50.91020 11.74967 37778 ft 451 kts 307°
2026-05-05 19:58 50.95251 11.67603 37782 ft 451 kts 307°
2026-05-05 19:58 50.99479 11.60220 37785 ft 451 kts 307°
2026-05-05 19:59 51.03676 11.52871 37785 ft 451 kts 307°
2026-05-05 19:59 51.07898 11.45457 37792 ft 451 kts 307°
2026-05-05 20:00 51.12090 11.38074 37792 ft 451 kts 307°
2026-05-05 20:00 51.16287 11.30659 37791 ft 450 kts 307°
2026-05-05 20:01 51.20490 11.23213 37800 ft 450 kts 307°
2026-05-05 20:01 51.24661 11.15802 37803 ft 450 kts 307°
2026-05-05 20:02 51.28844 11.08347 37802 ft 450 kts 307°
2026-05-05 20:02 51.33024 11.00876 37793 ft 450 kts 307°
2026-05-05 20:03 51.37171 10.93442 37806 ft 450 kts 307°
2026-05-05 20:03 51.41339 10.85947 37807 ft 450 kts 307°
2026-05-05 20:04 51.45481 10.78483 37816 ft 450 kts 307°
2026-05-05 20:04 51.49639 10.70968 37809 ft 449 kts 307°
2026-05-05 20:05 51.53736 10.63435 37799 ft 446 kts 301°
2026-05-05 20:05 51.57040 10.55075 37793 ft 443 kts 298°
2026-05-05 20:06 51.60325 10.46664 37809 ft 444 kts 298°
2026-05-05 20:06 51.63599 10.38239 37806 ft 443 kts 298°
2026-05-05 20:07 51.66315 10.31229 37807 ft 443 kts 298°
2026-05-05 20:07 51.70101 10.21426 37808 ft 443 kts 298°
2026-05-05 20:08 51.72805 10.14400 37808 ft 443 kts 298°
2026-05-05 20:08 51.76048 10.05948 37814 ft 443 kts 298°
2026-05-05 20:09 51.79286 9.97483 37810 ft 442 kts 298°
2026-05-05 20:09 51.82517 9.89007 37817 ft 442 kts 298°
2026-05-05 20:10 51.85726 9.80562 37817 ft 442 kts 298°
2026-05-05 20:10 51.88944 9.72065 37826 ft 442 kts 298°
2026-05-05 20:11 51.92157 9.63551 37814 ft 442 kts 298°
2026-05-05 20:11 51.95339 9.55090 37824 ft 442 kts 297°
2026-05-05 20:12 51.98548 9.46533 37822 ft 442 kts 297°
2026-05-05 20:12 52.01721 9.38041 37829 ft 442 kts 297°
2026-05-05 20:13 52.04910 9.29476 37841 ft 442 kts 297°
2026-05-05 20:13 52.08075 9.20948 37855 ft 442 kts 297°
2026-05-05 20:14 52.11250 9.12365 37868 ft 442 kts 297°
2026-05-05 20:14 52.14428 9.03744 37854 ft 442 kts 297°
2026-05-05 20:15 52.17568 8.95197 37855 ft 442 kts 297°
2026-05-05 20:15 52.20718 8.86597 37858 ft 442 kts 297°
2026-05-05 20:16 52.23863 8.77976 37878 ft 442 kts 297°
2026-05-05 20:16 52.26985 8.69394 37847 ft 441 kts 297°
2026-05-05 20:17 52.30117 8.60752 37852 ft 442 kts 297°
2026-05-05 20:17 52.33241 8.52100 37858 ft 441 kts 297°
2026-05-05 20:18 52.36359 8.43440 37855 ft 441 kts 297°
2026-05-05 20:18 52.39450 8.34823 37861 ft 441 kts 297°
2026-05-05 20:19 52.42561 8.26120 37861 ft 441 kts 297°
2026-05-05 20:19 52.45637 8.17484 37866 ft 441 kts 297°
2026-05-05 20:20 52.48725 8.08786 37866 ft 440 kts 296°
2026-05-05 20:20 52.51806 8.00077 37860 ft 440 kts 296°
2026-05-05 20:21 52.54871 7.91383 37856 ft 440 kts 296°
2026-05-05 20:21 52.57930 7.82679 37877 ft 439 kts 296°
2026-05-05 20:22 52.60958 7.74029 37872 ft 439 kts 296°
2026-05-05 20:22 52.64003 7.65301 37879 ft 439 kts 296°
2026-05-05 20:23 52.67043 7.56558 37883 ft 439 kts 296°
2026-05-05 20:23 52.70054 7.47868 37884 ft 439 kts 296°
2026-05-05 20:24 52.73073 7.39123 37884 ft 439 kts 296°
2026-05-05 20:24 52.76094 7.30343 37886 ft 439 kts 296°
2026-05-05 20:25 52.79102 7.21569 37886 ft 439 kts 296°
2026-05-05 20:25 52.82085 7.12838 37884 ft 439 kts 296°
2026-05-05 20:26 52.85084 7.04028 37890 ft 439 kts 296°
2026-05-05 20:26 52.88055 6.95268 37892 ft 439 kts 296°
2026-05-05 20:27 52.91036 6.86448 37913 ft 438 kts 296°
2026-05-05 20:27 52.94016 6.77600 37922 ft 439 kts 296°
2026-05-05 20:28 52.96966 6.68810 37931 ft 439 kts 296°
2026-05-05 20:28 52.99934 6.59937 37938 ft 439 kts 296°
2026-05-05 20:29 53.02886 6.51078 37937 ft 439 kts 295°
2026-05-05 20:29 53.05832 6.42203 37938 ft 438 kts 295°
2026-05-05 20:30 53.08778 6.33296 37932 ft 438 kts 295°
2026-05-05 20:30 53.11695 6.24447 37929 ft 438 kts 295°
2026-05-05 20:31 53.14623 6.15532 37930 ft 438 kts 295°
2026-05-05 20:31 53.17547 6.06595 37939 ft 438 kts 295°
2026-05-05 20:32 53.20440 5.97723 37940 ft 438 kts 295°
2026-05-05 20:32 53.23345 5.88780 37938 ft 437 kts 295°
2026-05-05 20:33 53.26237 5.79844 37938 ft 437 kts 295°
2026-05-05 20:33 53.29112 5.70928 37940 ft 437 kts 295°
2026-05-05 20:34 53.31994 5.61960 37940 ft 437 kts 295°
2026-05-05 20:34 53.34867 5.52984 37945 ft 437 kts 294°
2026-05-05 20:35 53.37731 5.44004 37947 ft 437 kts 294°
2026-05-05 20:35 53.40576 5.35049 37956 ft 437 kts 294°
2026-05-05 20:36 53.43431 5.26032 37965 ft 437 kts 294°
2026-05-05 20:36 53.46264 5.17049 37967 ft 437 kts 294°
2026-05-05 20:37 53.49105 5.08010 37972 ft 437 kts 294°
2026-05-05 20:37 53.51938 4.98961 37977 ft 437 kts 294°
2026-05-05 20:38 53.54761 4.89908 37980 ft 437 kts 294°
2026-05-05 20:38 53.57585 4.80822 37988 ft 437 kts 294°
2026-05-05 20:39 53.60383 4.71780 37986 ft 436 kts 294°
2026-05-05 20:39 53.63183 4.62704 37986 ft 436 kts 294°
2026-05-05 20:40 53.65958 4.53680 37979 ft 436 kts 294°
2026-05-05 20:40 53.68747 4.44582 37979 ft 435 kts 294°
2026-05-05 20:41 53.71522 4.35493 37983 ft 435 kts 294°
2026-05-05 20:41 53.74278 4.26438 37982 ft 435 kts 294°
2026-05-05 20:42 53.77042 4.17319 37970 ft 435 kts 294°
2026-05-05 20:42 53.79796 4.08201 37975 ft 435 kts 294°
2026-05-05 20:43 53.82523 3.99140 37967 ft 435 kts 294°
2026-05-05 20:43 53.84988 3.89825 37967 ft 432 kts 289°
2026-05-05 20:44 53.87290 3.80382 37965 ft 433 kts 290°
2026-05-05 20:44 53.89603 3.71016 37966 ft 433 kts 290°
2026-05-05 20:45 53.93097 3.56828 37968 ft 433 kts 290°
2026-05-05 20:45 53.95402 3.47420 37972 ft 433 kts 290°
2026-05-05 20:46 53.97712 3.37949 37971 ft 433 kts 289°
2026-05-05 20:46 53.99999 3.28532 37964 ft 433 kts 289°
2026-05-05 20:47 54.02289 3.19062 37964 ft 433 kts 289°
2026-05-05 20:47 54.04577 3.09558 37970 ft 433 kts 289°
2026-05-05 20:48 54.06840 3.00119 37977 ft 432 kts 289°
2026-05-05 20:48 54.09109 2.90612 37973 ft 432 kts 289°
2026-05-05 20:49 54.11365 2.81117 37972 ft 432 kts 289°
2026-05-05 20:49 54.13615 2.71609 37976 ft 432 kts 289°
2026-05-05 20:50 54.15479 2.63697 37972 ft 432 kts 289°
2026-05-05 20:50 54.18080 2.52607 37975 ft 431 kts 289°
2026-05-05 20:51 54.20289 2.43144 37980 ft 431 kts 289°
2026-05-05 20:51 54.22508 2.33597 37981 ft 431 kts 289°
2026-05-05 20:52 54.24717 2.24052 37982 ft 431 kts 289°
2026-05-05 20:52 54.26904 2.14557 37989 ft 431 kts 289°
2026-05-05 20:53 54.29102 2.04973 37991 ft 432 kts 289°
2026-05-05 20:53 54.31289 1.95393 37995 ft 432 kts 289°
2026-05-05 20:54 54.33458 1.85846 37994 ft 432 kts 289°
2026-05-05 20:54 54.35626 1.76264 37996 ft 432 kts 289°
2026-05-05 20:55 54.37793 1.66639 38003 ft 432 kts 289°
2026-05-05 20:55 54.39955 1.56994 38010 ft 432 kts 289°
2026-05-05 20:56 54.42094 1.47406 38009 ft 431 kts 289°
2026-05-05 20:56 54.44233 1.37775 38016 ft 431 kts 289°
2026-05-05 20:57 54.46361 1.28150 38018 ft 431 kts 288°
2026-05-05 20:57 54.48481 1.18513 38021 ft 430 kts 288°
2026-05-05 20:58 54.50578 1.08942 38028 ft 430 kts 288°
2026-05-05 20:58 54.52683 0.99284 38024 ft 430 kts 288°
2026-05-05 20:59 54.54425 0.91258 38031 ft 429 kts 288°
2026-05-05 20:59 54.56499 0.81664 38035 ft 429 kts 288°
2026-05-05 21:00 54.58917 0.70422 38036 ft 429 kts 288°
2026-05-05 21:00 54.60648 0.62334 38044 ft 429 kts 288°
2026-05-05 21:01 54.62696 0.52725 38056 ft 429 kts 288°
2026-05-05 21:01 54.64749 0.43044 38042 ft 429 kts 288°
2026-05-05 21:02 54.66797 0.33343 38050 ft 429 kts 288°
2026-05-05 21:02 54.68835 0.23638 38046 ft 429 kts 288°
2026-05-05 21:03 54.70851 0.13995 38056 ft 429 kts 288°
2026-05-05 21:03 54.72871 0.04287 38062 ft 429 kts 288°
2026-05-05 21:04 54.74887 -0.05449 38061 ft 429 kts 287°
2026-05-05 21:04 54.76894 -0.15190 38069 ft 429 kts 287°
2026-05-05 21:05 54.78889 -0.24917 38069 ft 429 kts 287°
2026-05-05 21:05 54.80866 -0.34605 38071 ft 428 kts 287°
2026-05-05 21:06 54.82848 -0.44369 38076 ft 428 kts 287°
2026-05-05 21:06 54.84821 -0.54135 38079 ft 428 kts 287°
2026-05-05 21:07 54.86774 -0.63847 38078 ft 428 kts 287°
2026-05-05 21:07 54.88726 -0.73602 38021 ft 425 kts 287°
2026-05-05 21:08 54.89683 -0.78407 37742 ft 414 kts 287°
2026-05-05 21:08 54.90617 -0.83104 37345 ft 408 kts 287°
2026-05-05 21:08 54.91539 -0.87754 36840 ft 405 kts 287°
2026-05-05 21:08 54.92455 -0.92383 36325 ft 402 kts 287°
2026-05-05 21:09 54.93348 -0.96903 35851 ft 399 kts 287°
2026-05-05 21:09 54.94244 -1.01453 35379 ft 396 kts 286°
2026-05-05 21:09 54.95133 -1.05979 34903 ft 394 kts 286°
2026-05-05 21:09 54.96014 -1.10473 34433 ft 391 kts 286°
2026-05-05 21:10 54.96891 -1.14953 33944 ft 389 kts 286°
2026-05-05 21:10 54.97760 -1.19405 33409 ft 387 kts 286°
2026-05-05 21:10 54.98622 -1.23835 32941 ft 383 kts 286°
2026-05-05 21:10 54.99472 -1.28209 32497 ft 379 kts 286°
2026-05-05 21:11 55.00302 -1.32494 32070 ft 376 kts 286°
2026-05-05 21:11 55.01136 -1.36800 31639 ft 373 kts 286°
2026-05-05 21:11 55.01960 -1.41065 31215 ft 370 kts 286°
2026-05-05 21:11 55.02775 -1.45293 30796 ft 367 kts 286°
2026-05-05 21:12 55.03587 -1.49509 30386 ft 364 kts 286°
2026-05-05 21:12 55.04388 -1.53679 29948 ft 361 kts 286°
2026-05-05 21:12 55.05182 -1.57822 29494 ft 358 kts 286°
2026-05-05 21:12 55.05968 -1.61930 29096 ft 354 kts 287°
2026-05-05 21:13 55.06731 -1.65929 28722 ft 350 kts 287°
2026-05-05 21:13 55.07496 -1.69944 28338 ft 346 kts 287°
2026-05-05 21:13 55.08252 -1.73919 27973 ft 343 kts 287°
2026-05-05 21:13 55.08999 -1.77856 27604 ft 340 kts 287°
2026-05-05 21:14 55.09739 -1.81764 27241 ft 336 kts 287°
2026-05-05 21:14 55.10469 -1.85629 26885 ft 333 kts 287°
2026-05-05 21:14 55.11191 -1.89458 26527 ft 330 kts 287°
2026-05-05 21:14 55.11905 -1.93250 26193 ft 327 kts 287°
2026-05-05 21:15 55.12854 -1.96818 25759 ft 331 kts 300°
2026-05-05 21:15 55.14064 -2.00269 25420 ft 334 kts 298°
2026-05-05 21:15 55.15239 -2.03789 25064 ft 335 kts 298°
2026-05-05 21:15 55.16406 -2.07317 24688 ft 334 kts 298°
2026-05-05 21:16 55.17562 -2.10833 24302 ft 333 kts 298°
2026-05-05 21:16 55.18716 -2.14355 23905 ft 333 kts 298°
2026-05-05 21:16 55.19865 -2.17871 23473 ft 333 kts 298°
2026-05-05 21:16 55.21012 -2.21386 23028 ft 331 kts 298°
2026-05-05 21:17 55.22150 -2.24880 22625 ft 329 kts 298°
2026-05-05 21:17 55.23264 -2.28304 22242 ft 326 kts 298°
2026-05-05 21:17 55.24383 -2.31749 21861 ft 324 kts 298°
2026-05-05 21:17 55.25493 -2.35171 21476 ft 322 kts 298°
2026-05-05 21:18 55.26604 -2.38601 21093 ft 327 kts 298°
2026-05-05 21:18 55.27745 -2.42128 20673 ft 336 kts 298°
2026-05-05 21:18 55.28905 -2.45722 20289 ft 339 kts 298°
2026-05-05 21:18 55.30056 -2.49289 19917 ft 339 kts 298°
2026-05-05 21:19 55.31215 -2.52889 19516 ft 337 kts 298°
2026-05-05 21:19 55.32367 -2.56471 19127 ft 335 kts 298°
2026-05-05 21:19 55.33510 -2.60031 18737 ft 334 kts 298°
2026-05-05 21:19 55.34647 -2.63580 18338 ft 332 kts 298°
2026-05-05 21:20 55.35782 -2.67124 17894 ft 330 kts 298°
2026-05-05 21:20 55.36902 -2.70627 17493 ft 328 kts 298°
2026-05-05 21:20 55.37999 -2.74064 17115 ft 324 kts 298°
2026-05-05 21:20 55.39097 -2.77509 16734 ft 322 kts 298°
2026-05-05 21:21 55.40187 -2.80931 16361 ft 319 kts 298°
2026-05-05 21:21 55.41266 -2.84327 15972 ft 316 kts 298°
2026-05-05 21:21 55.42338 -2.87707 15615 ft 315 kts 298°
2026-05-05 21:21 55.43402 -2.91062 15242 ft 313 kts 298°
2026-05-05 21:22 55.44458 -2.94397 14880 ft 311 kts 298°
2026-05-05 21:22 55.45511 -2.97723 14516 ft 310 kts 298°
2026-05-05 21:22 55.46666 -3.00917 14116 ft 310 kts 308°
2026-05-05 21:22 55.48035 -3.03796 13719 ft 309 kts 309°
2026-05-05 21:23 55.49402 -3.06703 13334 ft 306 kts 309°
2026-05-05 21:23 55.50755 -3.09598 12987 ft 304 kts 309°
2026-05-05 21:23 55.52098 -3.12480 12629 ft 303 kts 309°
2026-05-05 21:23 55.53432 -3.15349 12282 ft 301 kts 309°
2026-05-05 21:24 55.54756 -3.18201 11931 ft 299 kts 309°
2026-05-05 21:24 55.56059 -3.21014 11591 ft 298 kts 309°
2026-05-05 21:24 55.57374 -3.23854 11236 ft 296 kts 309°
2026-05-05 21:24 55.58676 -3.26670 10890 ft 295 kts 309°
2026-05-05 21:25 55.59971 -3.29475 10550 ft 294 kts 309°
2026-05-05 21:25 55.61269 -3.32287 10208 ft 295 kts 309°
2026-05-05 21:25 55.62557 -3.35085 10085 ft 294 kts 309°
2026-05-05 21:25 55.63851 -3.37897 10100 ft 295 kts 309°
2026-05-05 21:26 55.65130 -3.40679 10123 ft 295 kts 309°
2026-05-05 21:26 55.66420 -3.43490 10062 ft 293 kts 309°
2026-05-05 21:26 55.67716 -3.46315 9436 ft 299 kts 309°
2026-05-05 21:26 55.69046 -3.49218 8739 ft 306 kts 309°
2026-05-05 21:27 55.70319 -3.52298 8081 ft 312 kts 297°
2026-05-05 21:27 55.70894 -3.55991 7661 ft 313 kts 274°
2026-05-05 21:27 55.70591 -3.59783 7285 ft 312 kts 253°
2026-05-05 21:27 55.69798 -3.63357 6924 ft 310 kts 249°
2026-05-05 21:28 55.68967 -3.66875 6542 ft 308 kts 249°
2026-05-05 21:28 55.68146 -3.70356 6192 ft 305 kts 249°
2026-05-05 21:28 55.67368 -3.73753 5917 ft 297 kts 254°
2026-05-05 21:28 55.67169 -3.77317 5626 ft 288 kts 279°
2026-05-05 21:29 55.67840 -3.80578 5350 ft 279 kts 306°
2026-05-05 21:29 55.69209 -3.82913 5079 ft 272 kts 330°
2026-05-05 21:29 55.70931 -3.84125 4808 ft 264 kts 352°
2026-05-05 21:29 55.72740 -3.84193 4559 ft 258 kts
2026-05-05 21:30 55.74508 -3.83818 4312 ft 254 kts
2026-05-05 21:30 55.76250 -3.83432 4059 ft 250 kts
2026-05-05 21:30 55.77920 -3.83045 4010 ft 238 kts 15°
2026-05-05 21:30 55.79348 -3.81788 3995 ft 228 kts 43°
2026-05-05 21:31 55.80386 -3.79677 3991 ft 227 kts 55°
2026-05-05 21:31 55.81279 -3.77345 3992 ft 227 kts 57°
2026-05-05 21:31 55.82129 -3.74981 3981 ft 227 kts 58°
2026-05-05 21:31 55.82946 -3.72639 4003 ft 215 kts 59°
2026-05-05 21:32 55.83689 -3.70480 4025 ft 195 kts 59°
2026-05-05 21:32 55.84361 -3.68519 4015 ft 177 kts 59°
2026-05-05 21:32 55.84991 -3.66680 3812 ft 175 kts 59°
2026-05-05 21:32 55.85619 -3.64837 3591 ft 173 kts 59°
2026-05-05 21:33 55.86240 -3.63013 3375 ft 172 kts 59°
2026-05-05 21:33 55.86857 -3.61202 3141 ft 170 kts 60°
2026-05-05 21:33 55.87465 -3.59418 2919 ft 162 kts 60°
2026-05-05 21:33 55.88010 -3.57817 2730 ft 141 kts 61°
2026-05-05 21:34 55.88491 -3.56401 2535 ft 129 kts 62°
2026-05-05 21:34 55.88949 -3.55057 2350 ft 128 kts 62°
2026-05-05 21:34 55.89409 -3.53703 2169 ft 128 kts 62°
2026-05-05 21:34 55.89869 -3.52349 1987 ft 128 kts 61°
2026-05-05 21:35 55.90333 -3.50983 1816 ft 129 kts 61°
2026-05-05 21:35 55.90799 -3.49613 1623 ft 129 kts 62°
2026-05-05 21:35 55.91266 -3.48239 1447 ft 130 kts 61°
2026-05-05 21:35 55.91734 -3.46861 1245 ft 130 kts 62°
2026-05-05 21:36 55.92212 -3.45473 996 ft 131 kts 60°
2026-05-05 21:36 55.92692 -3.44094 761 ft 130 kts 60°
2026-05-05 21:36 55.93166 -3.42709 584 ft 131 kts 62°
2026-05-05 21:36 55.93631 -3.41316 442 ft 131 kts 60°
2026-05-05 21:37 55.94098 -3.39934 291 ft 132 kts 62°
2026-05-05 21:37 55.94568 -3.38547 144 ft 129 kts 62°
2026-05-05 21:37 55.94981 -3.37324 114 ft 91 kts 59°
2026-05-05 21:37 55.95200 -3.36671 113 ft 32 kts 60°
2026-05-05 21:38 55.95253 -3.36432 109 ft 15 kts 116°
2026-05-05 21:38 55.95192 -3.36351 111 ft 8 kts 150°
2026-05-05 21:38 55.95175 -3.36333 111 ft 1 kts 149°
2026-05-05 21:38 55.95148 -3.36317 111 ft 8 kts 173°
2026-05-05 21:39 55.95092 -3.36408 112 ft 13 kts 237°
2026-05-05 21:39 55.95041 -3.36560 114 ft 16 kts 240°
2026-05-05 21:39 55.94982 -3.36736 113 ft 16 kts 238°
2026-05-05 21:39 55.94899 -3.36807 111 ft 15 kts 159°
2026-05-05 21:40 55.94783 -3.36768 107 ft 13 kts 166°
2026-05-05 21:40 55.94695 -3.36739 106 ft 9 kts 176°
2026-05-05 21:40 55.94660 -3.36717 104 ft 2 kts 108°
2026-05-05 21:40 55.94659 -3.36656 104 ft 7 kts 88°
2026-05-05 21:41 55.94659 -3.36615 103 ft 0 kts 88°